Weather in Salerno

Italy     40°41′03″N   14°45′51″E
temp.,
°C
wind,
m/s
gust,
m/s
humid.,
%
clouds,
%
prec.,
mm/h
press.,
hPa
HPBL,
m
15 may, sat
sat1523:00+13s3490100 2.5 1010357
02:00+13sw2395100 26.0 1008243
05:00+12se129295 4.8 1009157
08:00+13nw128543 4.9 1010399
11:00+16sw226854 0.6 10121030
14:00+17s226383 0.8 1012932
17:00+17s2264100 0.1 1013914
20:00+15s1276100 0.3 1013489
16 may, sun
sun1623:00+13se018360 0.0 1015121
02:00+12se1187100 0.0 101466
05:00+12ese1290100 0.0 101473
08:00+14sse1182100 0.0 1015321
11:00+17s2368100 0.1 1015916
14:00+18s4464100 0.1 1015931
17:00+17s3372100 0.0 1014758
20:00+15sse2384100 0.0 1014411
17 may, mon
mon1723:00+14se1290100 0.0 1014119
02:00+13ese128693 0.0 101350
05:00+13se12885 0.0 101367
08:00+15sse237517 0.0 1013275
11:00+19s33638 0.0 1014606
14:00+20s456358 0.0 1014867
17:00+20s346311 0.0 1013804
20:00+17se228293 0.0 1014199
18 may, tue
tue1823:00+16se128543 0.0 101546
02:00+15sse018210 0.0 101536
05:00+14n018446 0.0 101429
08:00+17ssw12685 0.0 1015478
11:00+19s44490 0.0 10151110
14:00+20ssw565160 0.0 10151332
17:00+18sw46490 0.0 10151230
20:00+15sw23555 0.0 1015497
19 may, wed
wed1923:00+13nne01709 0.0 1017130
02:00+12e12800 0.0 101752
05:00+11ne227911 0.0 101748
08:00+15ne2264100 0.0 1019428
11:00+19nne244013 0.0 10191484
14:00+22w13368 0.0 10182042
17:00+20sw334689 0.0 10181460
20:00+16s126085 0.1 1018293